Orbital Elements at Epoch 2459200.5 (2020-Dec-17.0) TDB
Reference: JPL 17 (heliocentric ecliptic J2000)
Element | Value | Uncertainty (1-sigma) | Units |
e | .1054795975460998 | 5.3378e-08 | |
a | 3.00727412630307 | 2.9325e-08 | au |
q | 2.690068061749823 | 1.5875e-07 | au |
i | 8.700066616997496 | 9.243e-06 | deg |
node | 322.8295400142367 | 3.5239e-05 | deg |
peri | 310.4715447044929 | 6.0041e-05 | deg |
M | 224.0555280082441 | 5.2118e-05 | deg |
tp | 2459919.811502245043 (2022-Dec-06.31150224) | 0.00028045 | TDB |
period | 1904.837592983693 5.22 | 2.7862e-05 7.628e-08 | d yr |
n | .1889924901346075 | 2.7644e-09 | deg/d |
Q | 3.324480190856316 | 3.2418e-08 | au |
|
| | Orbit Determination Parameters
Additional Information
|